Regional Weather Roundup
Issued by NWS

Home | Current Version | Previous Version | Graphics & Text | Print | Product List | Glossary On
Versions: 1 2 3 4 5 6 7 8 9 10 11 12 13 14 15 16 17 18 19 20 21 22 23 24 25 26 27 28 29 30 31 32 33 34 35 36 37 38 39 40 41 42 43 44 45 46 47 48 49 50
000
ASUS43 KLSX 232157
RWRMO

WEATHER SUMMARY FOR MISSOURI
NATIONAL WEATHER SERVICE SPRINGFIELD MO
500 PM CDT MON APR 23 2018

NOTE: "FAIR" INDICATES FEW OR NO CLOUDS BELOW 12,000 FEET WITH NO
       SIGNIFICANT WEATHER AND/OR OBSTRUCTIONS TO VISIBILITY.
       CURRENT SKY AND/OR WEATHER CONDITIONS ARE NOT AVAILABLE FOR
       CHILLICOTHE AND FARMINGTON.

MOZ001>031-035>038-043-044-053-054-232300-
...NORTHERN AND WESTERN MISSOURI...

CITY           SKY/WX    TMP DP  RH WIND       PRES   REMARKS
KANSAS CTY INT MOSUNNY   75  31  19 NE9       30.02F
LEE`S SUMMIT   SUNNY     74  32  21 NE12G24   30.01S
ST JOSEPH      SUNNY     76  32  20 NE8G18    30.03F
CHILLICOTHE      N/A     76  31  19 NE10G21   30.02F

$$
MOZ066>068-077>081-088>096-101>105-232300-
...SOUTHWEST MISSOURI...

CITY           SKY/WX    TMP DP  RH WIND       PRES   REMARKS
SPRINGFIELD    CLOUDY    67  45  45 N16       29.95S
JOPLIN         MOSUNNY   71  43  36 N16G28    29.98F
BRANSON        CLOUDY    64  46  52 NW14      29.94F

$$
MOZ032>034-039>042-045>050-055>058-069>072-232300-
...CENTRAL MISSOURI...

CITY           SKY/WX    TMP DP  RH WIND       PRES   REMARKS
COLUMBIA       NOT AVBL
JEFFERSON CITY CLOUDY    70  45  40 E12G21    29.95S
ROLLA          CLOUDY    61  51  70 NE13      29.97S
SEDALIA        CLOUDY    69  38  32 N15       30.00S
WARRENSBURG    PTSUNNY   73  30  20 NE14G21   30.00S

$$
MOZ051-052-059>065-232300-
...EAST CENTRAL MISSOURI...

CITY           SKY/WX    TMP DP  RH WIND       PRES   REMARKS
ST LOUIS INTL  CLOUDY    59  55  87 NE10      29.97S

$$
MOZ072>076-082>087-097>100-106>115-232300-
...SOUTH CENTRAL AND SOUTHEAST MISSOURI...

CITY           SKY/WX    TMP DP  RH WIND       PRES   REMARKS
CAPE GIRARDEAU RAIN      63  58  83 E7        29.88R
POPLAR BLUFF   CLOUDY    61  56  83 CALM      29.88R
WEST PLAINS    CLOUDY    58  52  80 N13G22    29.93R

$$




USA.gov is the U.S. government's official web portal to all federal, state and local government web resources and services.